Location: Unspecified
(0.0000°N, 0.0000°E)
Time: 05:15:10
(UTC+00:00)

Vanguard 1 - All Passes

Search period start: 18 December 2017 00:00
Search period end: 28 December 2017 00:00
Orbit: 650 x 3834 km, 34.2° (Epoch: 16 December)

Date Brightness Start Highest point End Pass type
(mag) Time Alt. Az. Time Alt. Az. Time Alt. Az.
18 Dec - 00:41:41 10° S 00:48:16 15° SE 00:56:49 10° ESE visible
18 Dec - 02:58:41 10° SW 03:13:20 54° SE 03:35:30 10° ENE visible
18 Dec - 05:20:36 10° WSW 05:40:01 69° NW 06:03:24 10° NE visible
18 Dec - 07:50:24 10° W 08:09:27 31° NNW 08:26:27 10° NNE daylight
18 Dec - 10:33:04 10° NW 10:41:12 13° NNW 10:47:57 10° NNE daylight
18 Dec - 13:05:56 10° NNW 13:10:46 13° N 13:14:39 10° NE daylight
18 Dec - 15:27:35 10° NW 15:34:58 38° NNE 15:39:44 10° E daylight
18 Dec - 17:51:10 10° W 17:55:11 22° SW 17:58:42 10° SSE daylight
19 Dec - 01:01:15 10° S 01:10:04 22° SE 01:22:41 10° E visible
19 Dec - 03:19:25 10° SW 03:34:45 68° SE 03:58:01 10° ENE visible
19 Dec - 05:42:30 10° WSW 06:02:00 57° NW 06:24:36 10° NE daylight
19 Dec - 08:14:55 10° WNW 08:32:20 25° NNW 08:47:27 10° NNE daylight
19 Dec - 10:57:52 10° NNW 11:04:36 13° N 11:10:15 10° NNE daylight
19 Dec - 13:26:10 10° NNW 13:33:05 17° NNE 13:38:06 10° NE daylight
19 Dec - 15:48:33 10° NW 15:56:14 63° NNE 16:01:05 10° ESE daylight
19 Dec - 18:14:29 10° WSW 18:16:11 12° SW 18:17:49 10° SSW daylight
20 Dec - 01:21:16 10° SSW 01:31:35 30° SE 01:47:26 10° E visible
20 Dec - 03:40:21 10° SW 03:56:14 83° SE 04:20:05 10° NE visible
20 Dec - 06:04:51 10° W 06:24:12 46° NNW 06:45:43 10° NE daylight
20 Dec - 08:40:08 10° WNW 08:55:34 21° NNW 09:08:40 10° NNE daylight
20 Dec - 11:20:57 10° NNW 11:27:53 13° N 11:33:31 10° NNE daylight
20 Dec - 13:46:42 10° NNW 13:55:10 24° NNE 14:00:44 10° ENE daylight
20 Dec - 16:09:52 10° WNW 16:17:17 76° SW 16:22:03 10° SE daylight
21 Dec - 01:41:31 10° SSW 01:52:53 40° SE 02:11:17 10° ENE visible
21 Dec - 04:01:31 10° WSW 04:17:51 81° NW 04:41:49 10° NE visible
21 Dec - 06:27:44 10° W 06:46:40 38° NNW 07:06:48 10° NNE daylight
21 Dec - 09:05:41 10° NW 09:19:05 18° NNW 09:30:15 10° NNE daylight
21 Dec - 11:42:48 10° NNW 11:50:55 15° N 11:57:08 10° NE daylight
21 Dec - 14:07:27 10° NW 14:16:59 33° NNE 14:22:47 10° E daylight
21 Dec - 16:31:36 10° WNW 16:38:08 42° SW 16:42:38 10° SSE daylight
21 Dec - 23:47:02 10° SSE 23:50:40 12° SE 23:54:59 10° ESE visible
22 Dec - 02:01:59 10° SSW 02:14:05 53° SE 02:34:25 10° ENE visible
22 Dec - 04:22:58 10° WSW 04:39:39 67° NW 05:03:19 10° NE visible
22 Dec - 06:51:15 10° W 07:09:27 31° NNW 07:27:57 10° NNE daylight
22 Dec - 09:30:59 10° NW 09:42:47 16° N 09:52:27 10° NNE daylight
22 Dec - 12:04:02 10° NNW 12:13:39 19° NNE 12:20:28 10° NE daylight
22 Dec - 14:28:26 10° NW 14:38:34 49° NNE 14:44:22 10° ESE daylight
22 Dec - 16:53:55 10° W 16:58:56 23° SW 17:02:47 10° SSE daylight
23 Dec - 00:05:35 10° S 00:12:13 18° SE 00:21:28 10° ESE visible
23 Dec - 02:22:37 10° SW 02:35:18 68° SE 02:57:00 10° ENE visible
23 Dec - 04:44:46 10° WSW 05:01:41 55° NNW 05:24:38 10° NE visible
23 Dec - 07:15:27 10° WNW 07:32:36 26° NNW 07:49:17 10° NNE daylight
23 Dec - 09:55:19 10° NW 10:06:28 16° N 10:15:23 10° NNE daylight
23 Dec - 12:25:04 10° NNW 12:36:06 24° NNE 12:43:17 10° ENE daylight
23 Dec - 14:49:41 10° NW 14:59:53 75° NE 15:05:34 10° ESE daylight
23 Dec - 17:17:24 10° WSW 17:19:48 13° SW 17:21:57 10° SSW daylight
24 Dec - 00:25:16 10° SSW 00:33:29 27° SE 00:46:15 10° E visible
24 Dec - 02:43:30 10° SW 02:56:38 85° SE 03:19:08 10° NE visible
24 Dec - 05:07:00 10° W 05:23:59 44° NNW 05:45:53 10° NE visible
24 Dec - 07:40:12 10° WNW 07:56:07 22° NNW 08:10:57 10° NNE daylight
24 Dec - 10:18:27 10° NNW 10:29:58 17° N 10:38:46 10° NE daylight
24 Dec - 12:46:05 10° NNW 12:58:15 31° NNE 13:05:35 10° E daylight
24 Dec - 15:11:15 10° WNW 15:20:55 71° SW 15:26:27 10° SE daylight
25 Dec - 00:45:21 10° SSW 00:54:34 37° SE 01:10:05 10° ENE visible
25 Dec - 03:04:36 10° WSW 03:18:10 79° NW 03:40:56 10° NE visible
25 Dec - 05:29:44 10° W 05:46:35 36° NNW 06:07:10 10° NE visible
25 Dec - 08:05:11 10° NW 08:19:56 19° N 08:33:07 10° NNE daylight
25 Dec - 10:40:38 10° NNW 10:53:10 20° N 11:02:11 10° NE daylight
25 Dec - 13:07:10 10° NW 13:20:10 42° NNE 13:27:26 10° E daylight
25 Dec - 15:33:14 10° WNW 15:41:46 43° SW 15:46:59 10° SSE daylight
26 Dec - 01:05:43 10° SSW 01:15:35 51° SE 01:33:12 10° ENE visible
26 Dec - 03:26:00 10° WSW 03:39:56 63° NW 04:02:30 10° NE visible
26 Dec - 05:53:02 10° WNW 06:09:32 30° NNW 06:28:34 10° NNE daylight
26 Dec - 08:29:52 10° NW 08:43:54 18° N 08:55:55 10° NE daylight
26 Dec - 11:02:16 10° NNW 11:16:02 24° NNE 11:25:16 10° ENE daylight
26 Dec - 13:28:25 10° NW 13:41:47 59° NNE 13:48:54 10° ESE daylight
26 Dec - 15:55:45 10° W 16:02:31 26° SW 16:07:08 10° SSE daylight
26 Dec - 23:10:24 10° S 23:14:52 15° SE 23:20:39 10° ESE night (unlit)
27 Dec - 01:26:18 10° SW 01:36:38 68° SE 01:55:45 10° ENE visible
27 Dec - 03:47:44 10° WSW 04:01:58 51° NNW 04:23:55 10° NE visible
27 Dec - 06:16:54 10° WNW 06:32:51 25° NNW 06:50:14 10° NNE daylight
27 Dec - 08:53:45 10° NW 09:07:48 19° N 09:19:18 10° NE daylight
27 Dec - 11:23:38 10° NNW 11:38:35 30° NNE 11:47:55 10° ENE daylight
27 Dec - 13:49:54 10° NW 14:03:07 83° NE 14:10:02 10° ESE daylight
27 Dec - 16:19:14 10° WSW 16:23:19 15° SW 16:26:35 10° S daylight
27 Dec - 23:29:36 10° S 23:35:58 23° SE 23:45:33 10° E visible
